Temp
62 62 61 61 61 61 62 62 61 61 61 61 61 61 61 61 60 55 49 58 59 68 71 69 70 69 66 62 64 62 47 42 49 54 59 66 66 75 81 75 83 82 80 84 87
62 62 61 61 61 61 62 62 61 61 60 61 61 61 61 60 53 50 61 68 68 70 65 63 63 66 58 58 60 56 47 50 59 62 61 62 65 72 73 74 73 78 84 84 85
61 61 61 61 61 60 60 61 61 60 60 61 60 60 60 60 48 54 73 70 69 70 68 68 68 65 56 55 57 55 54 59 61 67 68 68 66 72 70 66 71 71 76 78 79
60 60 60 60 60 60 60 61 61 61 61 60 60 60 60 57 45 67 73 74 71 69 67 65 63 56 53 53 59 51 61 63 64 69 66 62 68 71 70 72 77 78 78 79 75
59 60 60 60 59 60 60 60 60 60 60 60 60 60 57 46 49 67 72 74 70 69 64 62 58 55 51 54 58 54 60 65 67 68 69 68 68 69 71 77 77 80 80 76 74
59 60 59 60 59 59 59 59 59 59 59 59 60 60 51 40 64 69 71 71 70 66 63 62 60 60 55 58 57 61 64 65 67 64 69 67 69 67 71 77 77 77 77 77 75
58 58 58 58 59 59 59 58 58 58 59 60 60 59 50 48 66 68 66 64 69 68 64 68 68 64 61 56 65 65 59 63 64 64 64 66 63 66 72 74 75 75 76 78 77
57 57 57 57 57 58 58 57 57 58 58 59 61 56 46 63 64 61 62 61 68 72 71 72 72 64 55 62 62 57 58 52 63 64 67 66 59 67 72 70 71 73 74 76 76
57 57 57 57 57 57 57 56 56 57 59 60 55 51 46 65 58 63 63 63 68 71 72 77 68 60 59 53 48 49 47 47 53 62 64 62 61 68 73 71 69 70 72 73 73
57 57 56 57 57 56 55 55 56 57 57 61 59 48 53 57 66 72 67 66 66 68 65 65 59 52 54 48 41 46 45 49 51 59 61 60 58 65 70 70 68 69 71 71 72
57 57 56 56 56 56 53 50 48 46 49 49 51 50 58 69 74 71 72 66 66 64 54 58 50 46 51 55 57 55 52 50 55 64 60 57 61 64 70 67 68 66 71 69 70
56 56 56 56 56 55 53 43 50 53 44 56 58 58 62 67 59 66 73 61 60 51 58 53 47 57 60 60 58 56 52 50 56 62 59 60 58 64 67 69 68 67 69 68 68
55 55 55 55 55 49 45 49 60 58 42 52 59 57 58 62 54 57 65 64 59 53 54 50 54 62 60 58 55 55 52 52 52 61 59 57 52 57 65 68 70 68 69 67 66
55 55 55 55 48 47 45 57 57 58 35 46 55 61 62 62 56 67 67 62 59 54 55 54 61 59 57 56 58 50 60 59 57 53 43 56 42 51 59 63 67 68 66 63 64
55 55 55 55 48 45 50 54 56 52 22 53 59 71 66 56 62 62 69 62 55 56 56 52 55 55 54 57 61 54 63 60 59 50 46 49 42 48 55 57 62 65 66 64 64
54 55 55 52 45 49 53 52 48 35 25 46 59 55 57 61 60 61 61 65 64 57 57 57 64 61 59 64 64 65 60 58 55 49 39 48 45 44 50 57 61 66 66 64 62
54 54 52 53 44 50 49 44 32 27 50 46 49 53 51 50 54 54 49 47 45 44 44 53 55 62 65 57 62 60 53 38 34 36 38 49 44 47 56 60 66 63 62 62 62
53 52 51 52 48 52 48 36 26 40 42 52 51 49 44 49 46 48 45 41 49 45 46 42 41 55 63 58 54 54 53 37 31 31 37 50 41 48 61 64 63 65 62 62 62
51 51 48 54 54 50 44 31 30 40 48 46 46 41 42 47 48 45 43 42 47 50 38 45 44 62 64 65 62 56 51 55 43 41 37 40 47 55 57 58 59 59 61 59 60
46 43 45 56 56 48 39 35 38 46 49 46 35 43 36 42 41 43 41 48 46 49 53 48 42 58 62 64 64 60 60 46 41 30 29 36 41 43 46 48 57 57 58 59 61
41 38 48 58 51 42 33 38 45 51 50 40 35 37 40 39 41 41 43 49 51 46 48 47 44 47 57 54 51 55 55 50 45 39 29 30 34 48 46 48 47 53 58 58 58
39 35 51 54 37 39 36 39 41 44 51 47 43 42 40 41 38 39 41 47 50 48 42 46 43 39 44 56 59 56 50 50 41 35 38 36 34 52 50 52 51 51 54 56 61
36 40 49 49 30 33 38 41 44 44 44 42 42 46 43 40 35 39 44 52 49 46 42 46 41 35 39 46 51 49 52 50 44 40 37 34 35 52 54 54 53 53 52 57 60
38 32 38 38 41 36 34 37 39 48 46 47 45 45 40 37 41 40 42 48 50 48 50 46 43 39 36 41 46 46 52 54 47 35 36 39 41 46 51 52 53 53 54 56 55
38 33 38 31 35 36 38 38 36 37 46 46 43 43 40 36 37 40 44 44 49 50 47 45 40 44 48 52 52 50 49 49 47 45 42 43 45 48 51 51 55 54 53 55 55
32 33 38 35 39 36 37 38 35 34 38 40 38 43 40 36 39 35 40 42 43 47 45 45 40 45 42 52 51 48 48 51 50 50 48 48 46 52 55 56 54 55 55 56 55
42 40 37 37 36 34 35 35 36 38 43 47 42 40 39 41 42 43 42 44 46 44 42 41 42 39 36 47 48 41 46 48 48 51 49 42 48 51 50 54 53 55 58 55 52
MSLP
1020.41 1020.12 1019.83 1019.52 1019.12 1018.77 1018.40 1018.02 1017.73 1017.48 1017.16 1016.77 1016.34 1016.01 1015.73 1015.37 1014.89 1014.46 1013.17 1010.42 1010.33 1009.98 1010.43 1010.77 1010.76 1010.81 1011.13 1011.18 1011.02 1010.99 1011.71 1011.50 1010.56 1009.66 1007.90 1006.77 1006.16 1004.73 1003.57 1002.73 1002.11 1002.16 1001.62 1002.33 1002.86
1020.30 1019.92 1019.56 1019.27 1018.95 1018.61 1018.29 1018.00 1017.70 1017.37 1017.03 1016.64 1016.33 1016.05 1015.76 1015.26 1014.28 1012.32 1008.39 1008.46 1008.86 1009.39 1010.11 1010.54 1010.57 1010.89 1011.36 1011.07 1010.86 1010.89 1010.67 1010.06 1009.00 1008.37 1007.67 1006.85 1006.49 1005.57 1004.38 1003.17 1002.97 1002.70 1002.70 1002.65 1003.15
1020.46 1020.00 1019.55 1019.17 1018.73 1018.36 1018.02 1017.74 1017.51 1017.18 1016.82 1016.54 1016.30 1016.03 1015.72 1015.27 1014.04 1009.46 1006.86 1006.85 1007.82 1009.04 1009.71 1010.16 1010.39 1010.63 1011.20 1010.87 1010.66 1009.70 1008.79 1008.73 1008.00 1007.64 1007.24 1006.62 1006.40 1005.54 1004.88 1004.04 1003.31 1003.16 1003.30 1003.24 1003.28
1020.54 1020.09 1019.66 1019.19 1018.66 1018.19 1017.81 1017.40 1017.07 1016.76 1016.57 1016.32 1015.98 1015.76 1015.55 1015.67 1013.06 1007.61 1006.93 1006.48 1006.57 1008.86 1009.86 1010.00 1010.33 1010.81 1010.70 1010.34 1009.51 1009.23 1008.18 1008.04 1007.60 1007.05 1006.79 1006.43 1006.12 1005.61 1004.93 1004.06 1003.41 1003.00 1002.94 1003.44 1003.82
1020.42 1019.99 1019.52 1019.02 1018.58 1018.14 1017.70 1017.30 1016.90 1016.56 1016.29 1016.05 1015.80 1015.69 1015.40 1014.77 1011.25 1007.48 1007.21 1007.64 1007.94 1008.64 1009.25 1009.63 1009.91 1009.99 1010.07 1009.74 1009.42 1008.56 1007.97 1007.31 1007.07 1006.72 1006.20 1006.31 1005.71 1005.67 1004.77 1003.80 1003.48 1003.21 1002.91 1003.15 1003.64
1020.50 1019.86 1019.36 1018.85 1018.44 1017.96 1017.47 1016.96 1016.49 1016.09 1015.78 1015.64 1015.50 1015.46 1015.35 1013.18 1008.45 1007.60 1007.60 1007.52 1007.67 1008.28 1008.38 1008.93 1008.84 1009.08 1009.46 1008.84 1008.57 1007.45 1007.34 1006.99 1006.64 1006.25 1005.94 1006.18 1005.27 1005.10 1004.52 1003.73 1003.49 1003.44 1003.23 1003.15 1003.62
1020.36 1019.85 1019.29 1018.75 1018.15 1017.63 1017.07 1016.48 1015.96 1015.52 1015.24 1014.98 1014.91 1014.87 1013.78 1009.32 1007.78 1007.14 1007.33 1007.66 1007.27 1007.35 1007.59 1007.57 1007.84 1008.32 1008.55 1008.25 1007.15 1007.12 1007.21 1006.55 1006.09 1005.88 1005.84 1005.73 1004.72 1003.90 1004.12 1003.95 1003.36 1003.42 1003.30 1003.16 1003.38
1020.17 1019.63 1019.04 1018.39 1017.83 1017.20 1016.47 1015.66 1015.02 1014.63 1014.38 1014.30 1014.13 1014.02 1011.06 1008.43 1007.82 1007.31 1006.51 1006.98 1006.82 1006.73 1006.62 1006.64 1007.31 1007.90 1008.22 1007.59 1006.96 1006.92 1006.80 1006.47 1005.58 1005.24 1004.87 1005.19 1002.62 1003.39 1003.33 1003.67 1003.60 1003.18 1003.20 1003.21 1003.34
1019.90 1019.32 1018.71 1018.10 1017.51 1016.93 1016.03 1014.76 1013.51 1013.00 1013.04 1013.22 1013.57 1013.29 1009.37 1007.14 1006.69 1005.00 1005.88 1005.88 1005.60 1005.99 1006.25 1006.34 1007.06 1007.41 1007.53 1007.67 1007.74 1006.64 1006.21 1005.76 1005.44 1004.76 1004.62 1004.14 1003.13 1003.22 1002.91 1003.06 1003.20 1003.13 1003.04 1003.19 1003.20
1019.58 1018.97 1018.35 1017.67 1016.96 1016.43 1015.66 1014.38 1012.03 1011.82 1011.70 1012.46 1012.32 1012.59 1008.68 1005.51 1004.07 1003.63 1003.53 1004.52 1004.86 1005.21 1005.97 1006.17 1006.49 1006.35 1006.32 1006.63 1005.03 1006.05 1005.74 1005.09 1004.97 1004.28 1004.25 1003.74 1003.27 1003.13 1002.72 1002.78 1002.80 1002.85 1002.82 1003.03 1003.00
1019.39 1018.70 1018.04 1017.34 1016.49 1016.02 1015.46 1014.42 1012.35 1011.81 1011.30 1010.13 1009.33 1008.06 1005.39 1003.97 1003.13 1002.46 1002.98 1003.65 1004.35 1004.41 1004.88 1005.07 1005.51 1003.75 1004.31 1004.78 1005.12 1005.12 1005.02 1004.83 1004.26 1003.82 1003.84 1003.56 1003.07 1002.93 1002.23 1002.36 1002.43 1002.30 1002.67 1002.85 1002.73
1019.07 1018.43 1017.76 1016.93 1016.03 1015.26 1015.33 1014.75 1012.26 1011.57 1009.07 1008.00 1007.14 1005.63 1004.52 1003.25 1002.38 1001.83 1002.46 1003.17 1003.20 1003.02 1003.88 1004.43 1002.35 1003.52 1004.05 1004.11 1004.42 1004.56 1004.36 1004.39 1004.11 1003.32 1003.82 1003.38 1003.02 1002.27 1001.73 1001.48 1001.46 1001.52 1001.80 1002.12 1002.43
1018.69 1018.02 1017.30 1016.58 1015.39 1014.79 1014.86 1013.86 1011.87 1011.99 1010.22 1005.39 1004.18 1002.72 1001.44 1002.82 1000.76 1000.66 1001.90 1001.27 1001.36 1002.33 1002.01 1002.01 1001.63 1002.91 1003.04 1003.07 1003.17 1003.25 1003.49 1003.95 1004.20 1003.26 1003.54 1003.45 1002.99 1002.25 1001.14 1000.73 1000.89 1001.03 1001.50 1001.94 1002.54
1018.25 1017.56 1016.86 1016.24 1015.30 1014.70 1013.92 1012.46 1012.23 1012.17 1010.13 1004.70 1002.08 999.92 1000.29 1001.07 1000.36 998.72 999.58 1000.56 1000.45 1000.17 1001.84 1001.84 1001.67 1001.53 1001.86 1001.70 1002.18 1002.29 1002.84 1003.33 1003.67 1004.04 1004.13 1003.26 1003.40 1002.28 1001.19 1000.70 1000.69 1001.02 1001.64 1002.64 1003.27
1017.80 1016.83 1016.41 1016.19 1015.35 1014.49 1012.55 1012.07 1011.90 1011.48 1009.75 1003.56 1000.51 999.48 999.42 1000.72 999.67 998.41 998.32 999.76 999.52 999.94 1001.17 999.55 1000.47 1000.78 1000.74 1000.44 1001.27 1001.18 1002.42 1002.88 1003.25 1004.03 1004.45 1003.68 1003.92 1002.31 1001.36 1001.03 1000.90 1001.38 1002.30 1003.75 1003.52
1017.21 1016.05 1015.39 1014.89 1014.54 1012.60 1012.06 1012.27 1012.18 1011.52 1007.59 1003.50 1000.21 999.90 1000.37 1000.00 999.93 999.42 999.04 999.44 999.81 1000.13 1000.10 999.79 999.65 999.81 999.48 1000.12 1000.56 1001.20 1001.93 1002.64 1003.17 1004.11 1004.38 1003.70 1003.92 1002.97 1001.66 1001.03 1000.91 1001.97 1002.80 1004.00 1004.92
1016.41 1014.92 1014.25 1014.12 1012.56 1011.79 1012.19 1012.26 1012.04 1009.51 1005.66 1002.92 1001.50 1001.33 1001.38 1001.35 1000.52 1000.14 1001.05 1001.28 1001.14 1000.60 1000.11 999.88 999.44 999.24 999.19 999.90 999.89 1000.70 1001.74 1002.89 1003.73 1004.12 1003.74 1003.49 1003.71 1002.45 1001.32 1000.99 1001.14 1002.44 1003.42 1004.70 1005.58
1015.74 1013.90 1011.88 1011.85 1011.48 1012.14 1012.41 1012.29 1010.84 1007.65 1005.80 1003.82 1002.96 1002.34 1002.54 1001.78 1001.87 1001.77 1002.13 1002.00 1001.91 1001.51 1000.23 999.65 999.12 997.93 997.89 998.28 998.85 999.79 1000.81 1001.84 1003.06 1003.79 1004.17 1003.50 1002.84 1002.10 1001.24 1001.07 1001.45 1002.59 1004.06 1004.36 1005.62
1015.06 1012.70 1011.75 1010.26 1010.38 1011.82 1011.83 1011.36 1009.40 1007.35 1006.01 1005.08 1004.35 1003.25 1002.39 1002.24 1002.20 1002.21 1002.22 1002.02 1001.71 1000.96 1001.27 999.23 997.99 997.55 997.62 997.67 998.56 998.68 999.53 1000.95 1002.73 1004.07 1004.16 1004.10 1003.14 1002.39 1002.20 1002.14 1002.68 1003.71 1004.52 1005.18 1006.18
1015.54 1013.36 1011.66 1010.24 1009.93 1011.02 1011.49 1009.80 1008.61 1007.45 1006.43 1006.04 1005.34 1004.04 1003.29 1002.75 1002.96 1002.54 1002.51 1002.04 1001.79 1001.55 1000.91 999.87 998.88 997.66 996.69 997.29 997.50 997.92 999.20 1000.51 1002.03 1003.72 1004.77 1004.79 1004.47 1004.06 1004.40 1004.50 1004.23 1004.27 1004.84 1005.78 1006.17
1015.81 1014.26 1010.93 1010.42 1010.49 1011.76 1010.74 1009.38 1008.01 1006.94 1006.89 1006.36 1005.17 1004.68 1003.76 1003.22 1003.04 1002.65 1001.43 1001.27 1001.19 1001.24 1001.37 1000.67 1000.11 998.50 997.07 997.28 997.54 997.75 998.42 999.60 1001.53 1003.00 1004.43 1005.49 1005.43 1004.98 1005.18 1005.56 1006.03 1005.48 1005.57 1005.27 1006.39
1016.82 1015.19 1011.24 1011.12 1011.64 1011.93 1010.53 1009.84 1009.07 1007.21 1006.36 1005.56 1004.99 1004.30 1003.91 1003.50 1002.81 1002.48 1001.29 1000.67 1000.82 1001.52 1001.27 1001.12 1000.49 999.76 998.10 998.11 998.23 998.22 998.90 999.66 1000.88 1003.28 1004.01 1004.90 1006.12 1005.51 1005.77 1005.36 1007.01 1006.53 1006.88 1006.97 1006.62
1016.96 1015.13 1012.14 1011.91 1013.10 1012.12 1010.90 1009.70 1008.53 1007.27 1006.34 1005.36 1004.72 1004.12 1003.87 1003.51 1003.01 1002.02 1001.14 1000.64 1001.23 1001.30 1001.62 1001.17 1000.61 1000.04 999.96 999.46 998.60 998.29 999.05 999.55 1000.04 1002.21 1003.87 1004.90 1006.03 1006.01 1006.28 1005.87 1007.21 1007.48 1007.95 1007.82 1007.38
1017.52 1015.82 1014.16 1013.48 1013.83 1013.08 1011.68 1009.73 1008.61 1007.20 1005.86 1005.26 1004.60 1004.12 1004.17 1003.68 1002.50 1001.55 1001.30 1000.65 1001.23 1001.27 1001.76 1001.34 999.90 998.95 998.10 997.88 998.88 998.95 998.84 998.40 999.42 1001.89 1003.64 1004.04 1005.10 1005.67 1005.99 1006.20 1006.83 1007.72 1008.10 1008.45 1008.45
1017.78 1016.86 1016.58 1014.97 1013.74 1013.39 1012.41 1010.76 1009.28 1007.80 1006.38 1005.16 1004.27 1004.05 1004.12 1003.77 1003.12 1001.75 1001.03 1000.83 1001.05 1000.95 1001.04 1000.99 999.46 998.80 997.86 997.53 998.17 998.78 998.36 998.26 999.25 1000.71 1001.94 1003.56 1003.92 1004.30 1004.83 1005.77 1006.25 1006.47 1008.19 1009.01 1009.59
1018.53 1018.19 1016.85 1015.74 1014.54 1013.58 1012.20 1010.68 1009.88 1008.04 1007.12 1005.31 1004.52 1004.43 1004.04 1003.96 1003.44 1002.79 1002.17 1000.91 1000.59 1000.44 1000.17 1000.21 999.17 998.54 998.47 997.86 998.15 999.14 998.66 998.76 999.62 1000.76 1001.77 1002.95 1003.80 1003.96 1004.41 1005.70 1006.52 1006.99 1008.06 1009.40 1010.41
1018.52 1018.03 1017.25 1015.55 1014.50 1013.67 1012.34 1011.59 1010.16 1008.92 1006.83 1005.65 1005.27 1004.44 1003.88 1003.65 1003.43 1002.97 1002.54 1001.65 1000.81 1000.37 1000.19 999.78 998.95 999.30 999.63 998.97 999.00 999.35 999.32 999.38 1000.17 1000.85 1001.82 1003.18 1003.79 1003.84 1005.50 1005.53 1006.18 1006.96 1008.34 1009.81 1011.33
Wind_Speed
15 15 13 14 15 15 17 19 20 19 18 19 19 18 19 21 22 11 14 16 15 22 5 5 4 5 2 4 4 3 2 5 8 8 9 3 6 9 8 1 3 5 7 7 10
16 16 16 15 15 15 16 16 17 18 17 18 18 18 19 22 19 15 22 20 25 13 8 11 4 5 3 6 4 6 6 9 8 8 8 2 4 14 6 4 3 5 7 3 5
18 17 15 16 17 16 16 18 18 16 15 16 16 16 16 17 8 11 9 15 25 22 7 8 4 6 6 3 6 7 10 7 4 12 11 11 4 5 5 5 3 3 4 1 3
16 17 18 18 17 17 17 19 21 21 19 18 15 15 15 7 8 3 9 15 16 16 12 7 6 7 7 10 8 5 5 8 6 9 6 4 3 7 5 8 7 8 4 6 3
16 17 18 16 17 18 19 19 20 21 21 20 18 14 8 5 17 14 22 6 12 14 16 12 10 8 8 6 7 7 11 9 9 13 17 5 13 8 10 10 7 9 5 5 3
19 20 18 21 19 21 21 20 20 20 20 20 18 13 6 19 9 12 14 8 11 16 15 13 8 8 3 10 11 6 19 18 12 12 14 12 14 9 9 10 8 7 8 7 5
19 20 21 21 21 22 22 22 22 22 22 21 18 12 14 31 7 10 13 8 6 18 10 18 17 8 9 7 10 15 12 12 11 9 9 6 15 17 9 8 11 11 10 9 8
19 19 22 23 23 24 24 25 25 24 25 22 18 12 18 16 15 22 17 10 15 16 19 15 16 13 3 6 7 6 11 17 15 9 9 11 27 7 9 9 12 11 9 8 9
19 19 20 23 24 24 25 28 30 30 24 16 8 5 16 8 10 20 21 15 12 13 15 10 11 8 6 7 5 4 9 6 7 8 8 13 19 8 11 9 12 10 11 9 9
20 20 21 22 24 22 24 29 31 22 4 6 6 6 9 10 6 6 10 22 9 16 14 16 7 7 12 9 16 11 5 3 7 5 8 13 10 8 11 9 11 11 11 9 9
23 22 22 23 25 24 16 9 6 1 4 12 13 11 18 12 16 17 6 12 12 14 17 14 10 21 21 17 8 8 7 6 6 11 7 9 13 12 17 8 12 10 12 11 11
24 23 23 24 26 26 15 4 7 4 16 18 24 29 31 32 20 18 9 11 13 17 18 11 28 15 9 16 16 11 10 9 8 9 7 14 13 12 14 11 10 10 13 11 7
24 23 23 22 27 9 3 11 12 16 8 13 23 19 25 22 29 25 8 19 17 19 23 24 3 19 16 17 18 16 15 9 8 14 5 6 8 5 8 7 7 5 5 2 7
25 24 23 23 10 7 12 8 10 16 6 11 8 9 8 10 10 23 24 14 14 27 18 20 23 17 20 18 16 17 10 15 15 10 6 6 7 5 5 6 5 6 8 10 16
27 28 24 14 11 7 8 10 15 3 7 9 6 3 7 10 9 2 14 12 20 16 19 23 24 26 21 23 15 14 15 16 18 6 4 4 3 8 3 5 4 6 11 6 17
28 30 28 12 6 12 13 11 3 2 10 10 6 12 21 11 8 6 4 8 7 13 15 24 7 21 27 13 21 14 12 11 6 6 10 11 8 7 2 6 3 9 15 15 12
31 34 26 11 8 6 3 2 2 8 5 7 6 17 17 16 14 4 7 10 7 16 17 17 19 18 13 20 19 14 15 6 4 6 9 8 5 8 6 5 5 17 16 16 13
35 36 11 8 6 7 1 3 8 7 14 15 18 22 13 7 6 4 1 5 9 16 8 15 16 24 23 20 18 20 14 7 7 5 4 4 6 5 8 6 1 18 17 21 19
33 8 8 6 8 6 3 4 7 5 9 12 20 15 0 6 7 1 2 5 6 13 6 15 19 13 21 17 21 20 19 11 7 3 5 1 4 4 3 5 15 20 19 18 14
12 7 7 7 2 7 4 7 5 5 11 14 17 10 13 9 8 4 5 7 5 4 8 7 12 19 17 13 17 23 7 7 1 8 4 2 3 4 6 7 10 18 18 14 16
5 8 6 14 5 3 4 6 10 11 14 5 3 8 10 16 11 9 6 5 4 5 8 6 3 5 11 10 14 4 19 1 8 6 8 5 5 3 7 7 3 7 10 20 17
4 7 5 8 6 3 3 12 5 17 16 11 6 11 11 11 5 7 11 5 6 5 2 2 2 4 9 1 0 6 3 9 9 4 3 6 4 6 7 14 5 6 6 7 15
7 6 6 4 5 6 8 11 16 14 14 5 4 8 3 5 3 9 9 7 12 7 8 5 7 6 9 2 4 3 14 7 8 5 5 7 4 7 3 15 9 9 5 7 13
4 6 5 4 6 8 13 10 13 16 10 7 11 2 4 4 6 5 6 6 15 8 9 6 4 4 9 5 7 6 11 10 9 6 6 4 8 9 11 12 13 7 7 6 12
2 3 2 8 11 16 15 12 15 15 8 8 5 2 5 5 7 6 7 6 10 10 5 5 7 6 6 11 12 1 3 3 6 9 8 10 10 16 14 15 18 18 16 4 8
2 4 3 12 12 14 13 8 17 14 7 4 8 9 6 6 7 6 7 2 2 7 3 3 4 6 6 12 21 4 6 9 9 10 12 10 3 5 7 14 11 15 15 14 15
2 4 5 7 10 11 6 14 18 24 10 9 13 11 8 8 6 12 9 12 3 3 3 4 2 4 4 6 10 2 3 9 12 8 13 6 4 13 4 17 19 19 17 17 15
Wind_Direction
345 341 340 335 336 334 331 330 328 326 325 326 327 328 327 323 312 295 241 221 198 235 201 321 239 241 174 235 211 144 176 212 223 197 236 341 358 305 287 15 18 315 112 156 147
339 340 338 335 331 328 323 321 321 321 321 322 323 324 325 325 310 266 242 234 221 180 154 202 218 195 201 211 236 171 209 220 202 210 250 163 339 303 309 327 31 41 14 96 154
342 334 331 328 324 320 316 318 316 310 310 312 315 319 324 329 313 253 290 236 220 211 220 185 215 161 199 197 225 215 229 209 270 237 256 273 274 254 325 310 227 190 180 200 141
335 334 331 326 321 318 317 317 314 311 311 310 313 318 316 316 279 256 21 358 188 188 196 205 198 181 197 207 219 256 241 213 246 257 256 219 227 261 200 237 283 299 255 134 180
321 321 319 320 322 318 316 312 309 307 307 306 305 312 324 247 244 268 294 359 140 168 192 202 193 164 192 217 236 226 250 253 246 246 257 265 256 226 249 250 261 277 284 279 130
332 329 325 322 319 318 314 308 303 298 297 299 301 302 258 266 242 259 257 256 177 186 193 189 212 198 227 233 200 228 234 245 248 250 254 248 264 165 238 244 266 251 255 266 225
338 335 332 329 324 319 313 304 297 294 290 289 288 279 246 242 275 292 288 311 207 191 191 207 210 184 179 303 236 234 264 261 239 229 238 200 259 242 206 244 215 247 245 241 231
334 330 327 323 319 315 310 304 295 290 287 282 277 261 253 254 253 263 257 267 243 217 214 193 205 221 195 305 321 210 235 248 254 228 246 170 254 236 229 208 234 231 242 236 236
332 325 323 322 320 318 313 304 296 286 284 265 249 206 267 297 225 250 231 223 209 202 217 210 179 202 230 204 282 236 245 226 267 199 218 200 252 241 233 210 243 236 236 231 229
329 325 322 318 315 315 311 307 292 294 238 211 233 227 260 250 204 232 177 194 211 194 210 212 198 201 214 176 212 223 209 202 199 239 198 241 252 256 258 221 224 231 235 211 212
329 325 321 318 314 314 318 335 354 319 254 200 195 229 289 252 268 279 171 165 204 195 198 196 205 215 215 216 230 233 226 240 224 244 228 242 249 241 252 213 241 242 225 213 212
326 323 323 318 315 311 306 239 229 339 295 231 243 240 242 252 275 256 275 203 196 207 194 212 227 215 218 224 220 225 223 239 278 259 177 251 249 230 235 234 203 218 202 196 221
324 323 320 320 315 324 253 246 287 332 274 278 233 237 239 214 244 254 247 199 204 204 205 206 242 207 211 223 215 217 219 220 229 277 247 259 264 244 235 185 161 193 207 157 173
321 319 317 324 315 329 296 276 329 322 289 286 241 266 178 198 276 233 224 219 225 212 209 222 223 203 208 223 206 225 203 227 239 250 244 159 257 260 217 169 157 124 120 119 115
319 314 314 318 290 263 249 330 317 289 300 278 248 156 108 164 306 34 214 213 218 206 182 217 203 216 213 219 201 224 225 231 235 215 215 241 94 269 237 183 177 156 98 112 124
320 313 313 304 237 242 267 290 294 107 243 265 294 11 352 344 346 348 13 208 219 223 220 222 212 198 223 213 223 215 232 232 232 199 236 237 148 269 197 208 196 96 127 128 113
321 311 307 269 252 207 228 296 117 224 309 253 321 347 350 337 325 35 20 335 278 207 216 222 222 231 205 219 234 212 218 238 253 215 225 215 160 215 219 246 195 134 136 122 118
323 312 277 238 216 246 216 86 223 251 232 304 323 328 311 309 35 46 119 284 256 258 223 207 215 210 211 212 215 223 215 176 200 171 189 217 203 231 198 179 108 128 140 133 136
322 310 300 270 182 155 189 181 224 224 267 300 314 305 331 331 334 111 253 221 274 180 232 202 231 214 218 219 216 226 217 192 124 348 105 244 332 32 10 142 122 134 139 136 133
318 312 292 321 173 147 236 233 251 256 304 320 293 251 282 300 324 240 188 189 203 307 276 285 226 219 219 209 225 210 199 176 316 146 156 258 189 201 31 358 146 141 136 132 130
312 326 273 358 65 65 294 242 285 303 312 295 283 279 258 280 265 274 239 164 169 59 1 213 167 327 201 199 231 179 207 193 120 151 146 155 251 180 129 79 334 114 139 139 135
312 310 302 340 44 309 312 338 323 285 293 291 302 271 269 301 273 238 204 229 134 166 214 224 296 166 224 162 341 297 300 180 172 177 129 143 245 99 135 99 52 64 110 131 126
306 272 298 41 0 326 303 307 297 297 304 283 252 240 31 292 223 244 193 184 157 151 193 154 213 150 149 4 343 161 261 205 110 98 179 127 220 157 157 106 87 78 66 127 124
299 311 337 352 355 327 322 307 313 304 302 301 278 33 330 288 242 255 202 166 169 174 219 45 255 190 205 142 148 172 220 176 128 119 153 165 143 173 166 135 125 104 38 67 70
305 323 346 316 330 315 307 289 340 331 293 294 264 221 295 287 301 243 238 146 183 204 172 228 204 193 138 156 162 7 49 41 128 158 151 177 161 186 176 169 161 152 151 156 87
330 341 328 293 298 310 310 340 325 310 267 302 310 320 302 272 239 303 351 355 214 195 160 214 199 140 67 145 157 155 49 75 99 103 83 120 105 80 168 157 155 162 155 155 146
298 260 268 292 307 309 307 320 316 316 289 334 330 310 294 309 322 287 262 277 275 297 161 261 102 85 105 136 123 55 144 84 91 82 136 147 196 65 164 156 159 163 154 129 122